EWG8ZM EPKK-EDDL

Flight info

Callsign EWG8ZM
Flight time 1h 32m
Altitude 36000
Route OMFOL DCT DINOV DCT NAROX DCT TOLTA DCT APEBE L602 HMM/N0372F240 T851 HALME HALME1A
Aircraft A319/M-SDE3FGHIRWY/LB1

Departure

Time 2026-05-07 18:49
Airport Kraków John Paul II International Airport (EPKK)

Arrival

Time 2026-05-07 20:21
Airport Düsseldorf Airport (EDDL)
Time Latitude Longitude Altitude Speed Heading
2026-05-07 18:31 50.07288 19.79888 800 ft 0 kts 167°
2026-05-07 18:41 50.07292 19.79886 800 ft 3 kts 167°
2026-05-07 18:41 50.07318 19.79877 800 ft 4 kts 165°
2026-05-07 18:41 50.07344 19.79864 800 ft 4 kts 156°
2026-05-07 18:41 50.07366 19.79843 800 ft 4 kts 122°
2026-05-07 18:42 50.07370 19.79824 800 ft 0 kts 77°
2026-05-07 18:44 50.07377 19.79872 800 ft 9 kts 78°
2026-05-07 18:45 50.07393 19.79991 800 ft 14 kts 77°
2026-05-07 18:45 50.07417 19.80155 800 ft 16 kts 78°
2026-05-07 18:45 50.07445 19.80338 800 ft 18 kts 69°
2026-05-07 18:45 50.07554 19.80418 800 ft 18 kts 15°
2026-05-07 18:46 50.07682 19.80391 800 ft 20 kts 348°
2026-05-07 18:46 50.07779 19.80359 800 ft 13 kts 348°
2026-05-07 18:46 50.07836 19.80340 800 ft 7 kts 348°
2026-05-07 18:46 50.07901 19.80318 800 ft 11 kts 348°
2026-05-07 18:47 50.07987 19.80286 799 ft 14 kts 340°
2026-05-07 18:47 50.08011 19.80186 800 ft 0 kts 258°
2026-05-07 18:48 50.07972 19.79909 800 ft 56 kts 258°
2026-05-07 18:48 50.07847 19.79010 801 ft 112 kts 258°
2026-05-07 18:49 50.07645 19.77561 836 ft 157 kts 257°
2026-05-07 18:49 50.07415 19.75913 1470 ft 154 kts 257°
2026-05-07 18:49 50.07186 19.74284 2098 ft 156 kts 257°
2026-05-07 18:49 50.06943 19.72560 2445 ft 175 kts 258°
2026-05-07 18:50 50.06666 19.70586 2745 ft 198 kts 258°
2026-05-07 18:50 50.06353 19.68355 3063 ft 224 kts 258°
2026-05-07 18:50 50.06041 19.65844 3565 ft 247 kts 266°
2026-05-07 18:50 50.06312 19.63163 4435 ft 256 kts 288°
2026-05-07 18:51 50.06884 19.60527 5466 ft 258 kts 288°
2026-05-07 18:51 50.07477 19.57864 6465 ft 262 kts 288°
2026-05-07 18:51 50.08086 19.55154 7379 ft 266 kts 288°
2026-05-07 18:51 50.08702 19.52416 8330 ft 269 kts 287°
2026-05-07 18:52 50.09329 19.49630 9247 ft 274 kts 287°
2026-05-07 18:52 50.09952 19.46842 10101 ft 279 kts 287°
2026-05-07 18:52 50.10608 19.43881 10482 ft 301 kts 287°
2026-05-07 18:52 50.11312 19.40691 10956 ft 316 kts 287°
2026-05-07 18:53 50.12032 19.37430 11666 ft 322 kts 287°
2026-05-07 18:53 50.12768 19.34087 12427 ft 327 kts 286°
2026-05-07 18:53 50.13509 19.30712 13179 ft 332 kts 286°
2026-05-07 18:53 50.14257 19.27314 13899 ft 337 kts 286°
2026-05-07 18:54 50.15024 19.23837 14566 ft 341 kts 285°
2026-05-07 18:54 50.15798 19.20321 15248 ft 344 kts 285°
2026-05-07 18:54 50.16578 19.16770 15938 ft 347 kts 285°
2026-05-07 18:54 50.17360 19.13197 16631 ft 350 kts 285°
2026-05-07 18:55 50.18150 19.09578 17330 ft 354 kts 285°
2026-05-07 18:55 50.18943 19.05932 18006 ft 357 kts 285°
2026-05-07 18:55 50.19746 19.02229 18612 ft 361 kts 285°
2026-05-07 18:55 50.20554 18.98501 19190 ft 364 kts 285°
2026-05-07 18:56 50.21363 18.94776 19757 ft 368 kts 284°
2026-05-07 18:56 50.22065 18.91541 20241 ft 371 kts 284°
2026-05-07 18:56 50.22476 18.89620 20524 ft 373 kts 284°
2026-05-07 18:56 50.23300 18.85766 21087 ft 377 kts 283°
2026-05-07 18:57 50.24136 18.81860 21635 ft 380 kts 283°
2026-05-07 18:57 50.24980 18.77920 22181 ft 384 kts 283°
2026-05-07 18:57 50.25832 18.73945 22719 ft 388 kts 283°
2026-05-07 18:57 50.26695 18.69928 23299 ft 391 kts 282°
2026-05-07 18:58 50.27568 18.65858 23819 ft 394 kts 282°
2026-05-07 18:58 50.28438 18.61791 24266 ft 397 kts 282°
2026-05-07 18:58 50.29320 18.57662 24716 ft 400 kts 282°
2026-05-07 18:58 50.30204 18.53515 25159 ft 403 kts 282°
2026-05-07 18:59 50.31082 18.49377 25584 ft 406 kts 282°
2026-05-07 18:59 50.31977 18.45145 26021 ft 409 kts 282°
2026-05-07 18:59 50.32872 18.40904 26453 ft 412 kts 281°
2026-05-07 18:59 50.33825 18.36636 26884 ft 418 kts 285°
2026-05-07 19:00 50.34549 18.33822 27175 ft 421 kts 285°
2026-05-07 19:00 50.36085 18.28156 27725 ft 426 kts 287°
2026-05-07 19:00 50.37261 18.23953 28084 ft 430 kts 287°
2026-05-07 19:00 50.38498 18.19570 28504 ft 434 kts 287°
2026-05-07 19:01 50.39702 18.15295 28898 ft 437 kts 287°
2026-05-07 19:01 50.40928 18.10903 29299 ft 440 kts 286°
2026-05-07 19:01 50.42150 18.06482 29691 ft 444 kts 286°
2026-05-07 19:01 50.43373 18.02013 30083 ft 447 kts 286°
2026-05-07 19:02 50.44182 17.99032 30299 ft 448 kts 286°
2026-05-07 19:02 50.45406 17.94502 30647 ft 450 kts 286°
2026-05-07 19:02 50.47035 17.88486 31129 ft 452 kts 286°
2026-05-07 19:02 50.47864 17.85425 31413 ft 453 kts 286°
2026-05-07 19:03 50.49085 17.80909 31763 ft 455 kts 286°
2026-05-07 19:03 50.50322 17.76327 32219 ft 453 kts 286°
2026-05-07 19:03 50.51560 17.71754 32680 ft 452 kts 286°
2026-05-07 19:03 50.52790 17.67195 33153 ft 451 kts 286°
2026-05-07 19:04 50.53999 17.62703 33615 ft 450 kts 286°
2026-05-07 19:04 50.55218 17.58170 34063 ft 449 kts 286°
2026-05-07 19:04 50.56432 17.53642 34449 ft 448 kts 286°
2026-05-07 19:04 50.57639 17.49122 34846 ft 446 kts 286°
2026-05-07 19:05 50.58837 17.44631 35269 ft 445 kts 287°
2026-05-07 19:05 50.60027 17.40154 35618 ft 444 kts 288°
2026-05-07 19:05 50.61219 17.35668 35932 ft 443 kts 288°
2026-05-07 19:06 50.63582 17.26743 36023 ft 437 kts 288°
2026-05-07 19:06 50.67049 17.13572 36030 ft 435 kts 288°
2026-05-07 19:07 50.69371 17.04722 36025 ft 435 kts 288°
2026-05-07 19:07 50.71668 16.95919 36027 ft 433 kts 288°
2026-05-07 19:08 50.73939 16.87179 36032 ft 432 kts 288°
2026-05-07 19:08 50.76216 16.78374 36033 ft 432 kts 288°
2026-05-07 19:09 50.78485 16.69617 36031 ft 432 kts 288°
2026-05-07 19:09 50.80754 16.60809 36054 ft 432 kts 288°
2026-05-07 19:10 50.83011 16.52005 36054 ft 431 kts 288°
2026-05-07 19:10 50.85238 16.43242 36048 ft 431 kts 288°
2026-05-07 19:11 50.87476 16.34414 36051 ft 431 kts 288°
2026-05-07 19:11 50.89710 16.25592 36046 ft 431 kts 288°
2026-05-07 19:12 50.91936 16.16776 36059 ft 431 kts 288°
2026-05-07 19:12 50.94136 16.08011 36044 ft 431 kts 288°
2026-05-07 19:13 50.96358 15.99146 36035 ft 431 kts 288°
2026-05-07 19:13 50.98568 15.90284 36033 ft 431 kts 288°
2026-05-07 19:14 51.00763 15.81427 36034 ft 431 kts 288°
2026-05-07 19:14 51.02948 15.72578 36056 ft 432 kts 288°
2026-05-07 19:15 51.05135 15.63683 36052 ft 432 kts 288°
2026-05-07 19:15 51.07314 15.54798 36045 ft 431 kts 288°
2026-05-07 19:16 51.09480 15.45947 36048 ft 431 kts 288°
2026-05-07 19:16 51.11653 15.37013 36048 ft 432 kts 288°
2026-05-07 19:17 51.13818 15.28078 36064 ft 432 kts 289°
2026-05-07 19:17 51.15965 15.19179 36063 ft 432 kts 288°
2026-05-07 19:18 51.18111 15.10232 36068 ft 432 kts 288°
2026-05-07 19:18 51.20193 15.01246 36066 ft 430 kts 283°
2026-05-07 19:19 51.21335 14.91903 36062 ft 428 kts 278°
2026-05-07 19:19 51.22369 14.82610 36067 ft 428 kts 278°
2026-05-07 19:20 51.23406 14.73240 36067 ft 427 kts 278°
2026-05-07 19:20 51.24432 14.63875 36064 ft 428 kts 278°
2026-05-07 19:21 51.25452 14.54519 36066 ft 427 kts 278°
2026-05-07 19:21 51.26452 14.45220 36065 ft 428 kts 278°
2026-05-07 19:22 51.27461 14.35828 36076 ft 428 kts 278°
2026-05-07 19:22 51.28456 14.26481 36074 ft 428 kts 278°
2026-05-07 19:23 51.29444 14.17086 36069 ft 428 kts 278°
2026-05-07 19:23 51.30412 14.07758 36074 ft 428 kts 278°
2026-05-07 19:24 51.31386 13.98364 36074 ft 428 kts 278°
2026-05-07 19:24 51.32353 13.89031 36080 ft 428 kts 278°
2026-05-07 19:25 51.33311 13.79637 36069 ft 427 kts 277°
2026-05-07 19:25 51.34262 13.70243 36071 ft 427 kts 277°
2026-05-07 19:26 51.35201 13.60911 36066 ft 427 kts 277°
2026-05-07 19:26 51.36133 13.51505 36072 ft 427 kts 277°
2026-05-07 19:27 51.37060 13.42091 36081 ft 427 kts 278°
2026-05-07 19:27 51.37981 13.32750 36078 ft 427 kts 278°
2026-05-07 19:28 51.38896 13.23325 36082 ft 427 kts 277°
2026-05-07 19:28 51.39797 13.13955 36082 ft 427 kts 277°
2026-05-07 19:29 51.40689 13.04540 36087 ft 427 kts 277°
2026-05-07 19:29 51.41575 12.95120 36090 ft 427 kts 277°
2026-05-07 19:30 51.42457 12.85686 36091 ft 427 kts 277°
2026-05-07 19:30 51.43334 12.76271 36098 ft 427 kts 277°
2026-05-07 19:31 51.44197 12.66903 36102 ft 427 kts 277°
2026-05-07 19:31 51.45059 12.57469 36106 ft 426 kts 277°
2026-05-07 19:32 51.45911 12.48036 36108 ft 426 kts 277°
2026-05-07 19:32 51.46750 12.38686 36111 ft 426 kts 277°
2026-05-07 19:33 51.47584 12.29249 36110 ft 426 kts 277°
2026-05-07 19:33 51.48414 12.19830 36110 ft 426 kts 277°
2026-05-07 19:34 51.49231 12.10442 36095 ft 426 kts 277°
2026-05-07 19:34 51.50040 12.01012 36101 ft 426 kts 277°
2026-05-07 19:35 51.50836 11.91661 36105 ft 425 kts 277°
2026-05-07 19:35 51.51630 11.82234 36102 ft 425 kts 277°
2026-05-07 19:36 51.52417 11.72805 36105 ft 425 kts 277°
2026-05-07 19:36 51.53191 11.63437 36103 ft 425 kts 277°
2026-05-07 19:37 51.53966 11.54043 36105 ft 425 kts 277°
2026-05-07 19:37 51.54737 11.44589 36105 ft 425 kts 277°
2026-05-07 19:38 51.55496 11.35213 36106 ft 425 kts 277°
2026-05-07 19:38 51.56246 11.25777 36105 ft 425 kts 277°
2026-05-07 19:39 51.56989 11.16349 36101 ft 425 kts 276°
2026-05-07 19:39 51.57720 11.06974 36102 ft 424 kts 276°
2026-05-07 19:40 51.58436 10.97616 36105 ft 424 kts 276°
2026-05-07 19:40 51.59149 10.88181 36103 ft 424 kts 276°
2026-05-07 19:41 51.59861 10.78753 36103 ft 424 kts 276°
2026-05-07 19:41 51.60564 10.69391 36099 ft 423 kts 276°
2026-05-07 19:42 51.61263 10.59948 36098 ft 423 kts 276°
2026-05-07 19:42 51.61938 10.50601 36098 ft 423 kts 276°
2026-05-07 19:43 51.62614 10.41170 36103 ft 423 kts 276°
2026-05-07 19:43 51.63285 10.31745 36104 ft 423 kts 276°
2026-05-07 19:44 51.63951 10.22325 36108 ft 423 kts 276°
2026-05-07 19:44 51.64604 10.12948 36111 ft 423 kts 276°
2026-05-07 19:45 51.65254 10.03520 36111 ft 423 kts 276°
2026-05-07 19:45 51.65895 9.94129 36112 ft 423 kts 276°
2026-05-07 19:46 51.66528 9.84692 36118 ft 423 kts 276°
2026-05-07 19:46 51.67155 9.75336 36094 ft 422 kts 276°
2026-05-07 19:47 51.67469 9.70636 35622 ft 422 kts 276°
2026-05-07 19:47 51.67778 9.65909 35010 ft 425 kts 276°
2026-05-07 19:47 51.68082 9.61183 34416 ft 426 kts 276°
2026-05-07 19:47 51.68381 9.56461 33794 ft 427 kts 276°
2026-05-07 19:48 51.68683 9.51689 33102 ft 427 kts 276°
2026-05-07 19:48 51.69003 9.46937 32431 ft 427 kts 277°
2026-05-07 19:48 51.69364 9.42181 31765 ft 426 kts 277°
2026-05-07 19:48 51.69742 9.37444 31125 ft 426 kts 277°
2026-05-07 19:49 51.70122 9.32726 30505 ft 424 kts 277°
2026-05-07 19:49 51.70497 9.28012 29834 ft 422 kts 277°
2026-05-07 19:49 51.70862 9.23319 29120 ft 420 kts 277°
2026-05-07 19:49 51.71212 9.18695 28423 ft 418 kts 277°
2026-05-07 19:50 51.71558 9.14051 27744 ft 416 kts 276°
2026-05-07 19:50 51.71902 9.09429 27074 ft 413 kts 276°
2026-05-07 19:50 51.72239 9.04862 26419 ft 407 kts 276°
2026-05-07 19:50 51.72570 9.00359 25784 ft 400 kts 276°
2026-05-07 19:51 51.72888 8.95986 25274 ft 393 kts 276°
2026-05-07 19:51 51.73200 8.91682 25096 ft 381 kts 276°
2026-05-07 19:51 51.73501 8.87491 25105 ft 366 kts 276°
2026-05-07 19:51 51.73788 8.83479 25109 ft 355 kts 276°
2026-05-07 19:52 51.73975 8.80859 25113 ft 353 kts 276°
2026-05-07 19:52 51.74389 8.75641 25112 ft 352 kts 278°
2026-05-07 19:52 51.74653 8.73051 25111 ft 352 kts 279°
2026-05-07 19:52 51.75095 8.69167 25112 ft 352 kts 280°
2026-05-07 19:53 51.75558 8.65293 25110 ft 352 kts 280°
2026-05-07 19:53 51.75978 8.61406 25112 ft 351 kts 274°
2026-05-07 19:53 51.75813 8.57483 25110 ft 351 kts 258°
2026-05-07 19:53 51.75308 8.53629 25109 ft 351 kts 258°
2026-05-07 19:54 51.74790 8.49785 25110 ft 351 kts 257°
2026-05-07 19:54 51.74265 8.45934 25112 ft 351 kts 257°
2026-05-07 19:54 51.73740 8.42076 25107 ft 350 kts 257°
2026-05-07 19:54 51.73225 8.38289 25110 ft 350 kts 257°
2026-05-07 19:55 51.72703 8.34455 25104 ft 350 kts 257°
2026-05-07 19:55 51.72180 8.30618 25108 ft 350 kts 257°
2026-05-07 19:55 51.71655 8.26768 25111 ft 350 kts 257°
2026-05-07 19:55 51.71134 8.22928 25107 ft 350 kts 257°
2026-05-07 19:56 51.70607 8.19077 25112 ft 350 kts 257°
2026-05-07 19:56 51.70086 8.15295 25109 ft 350 kts 257°
2026-05-07 19:56 51.69554 8.11466 25109 ft 350 kts 257°
2026-05-07 19:56 51.69029 8.07690 25108 ft 350 kts 257°
2026-05-07 19:57 51.68494 8.03842 25110 ft 350 kts 257°
2026-05-07 19:57 51.67963 8.00013 25108 ft 350 kts 257°
2026-05-07 19:57 51.67435 7.96183 25109 ft 350 kts 257°
2026-05-07 19:57 51.66903 7.92350 25111 ft 350 kts 257°
2026-05-07 19:58 51.66368 7.88514 25105 ft 349 kts 257°
2026-05-07 19:58 51.65840 7.84743 24873 ft 349 kts 257°
2026-05-07 19:58 51.65303 7.80938 24630 ft 347 kts 257°
2026-05-07 19:58 51.64766 7.77140 24394 ft 346 kts 257°
2026-05-07 19:59 51.64232 7.73362 24153 ft 345 kts 257°
2026-05-07 19:59 51.63705 7.69662 23921 ft 343 kts 257°
2026-05-07 19:59 51.63174 7.65947 23680 ft 338 kts 257°
2026-05-07 19:59 51.62649 7.62263 23275 ft 335 kts 257°
2026-05-07 20:00 51.62130 7.58620 22896 ft 331 kts 257°
2026-05-07 20:00 51.61615 7.55021 22514 ft 327 kts 257°
2026-05-07 20:00 51.61105 7.51474 22138 ft 324 kts 257°
2026-05-07 20:00 51.60599 7.47959 21760 ft 321 kts 257°
2026-05-07 20:01 51.60097 7.44468 21388 ft 318 kts 257°
2026-05-07 20:01 51.59600 7.41020 21022 ft 316 kts 257°
2026-05-07 20:01 51.59103 7.37578 20653 ft 314 kts 257°
2026-05-07 20:01 51.58606 7.34172 20289 ft 312 kts 257°
2026-05-07 20:02 51.58115 7.30823 19919 ft 310 kts 257°
2026-05-07 20:02 51.57623 7.27463 19564 ft 308 kts 257°
2026-05-07 20:02 51.57134 7.24110 19206 ft 306 kts 257°
2026-05-07 20:02 51.56649 7.20785 18848 ft 305 kts 257°
2026-05-07 20:03 51.56163 7.17463 18478 ft 304 kts 256°
2026-05-07 20:03 51.55676 7.14141 18098 ft 303 kts 256°
2026-05-07 20:03 51.55027 7.10988 17735 ft 301 kts 245°
2026-05-07 20:03 51.53965 7.08100 17349 ft 299 kts 234°
2026-05-07 20:04 51.52711 7.05447 16999 ft 297 kts 233°
2026-05-07 20:04 51.51462 7.02803 16639 ft 296 kts 233°
2026-05-07 20:04 51.50221 7.00173 16277 ft 294 kts 233°
2026-05-07 20:04 51.48989 6.97557 15920 ft 293 kts 233°
2026-05-07 20:05 51.47761 6.94951 15573 ft 292 kts 233°
2026-05-07 20:05 51.46554 6.92396 15222 ft 290 kts 233°
2026-05-07 20:05 51.45332 6.89816 14869 ft 289 kts 233°
2026-05-07 20:05 51.44119 6.87251 14520 ft 289 kts 233°
2026-05-07 20:06 51.42906 6.84686 14163 ft 288 kts 233°
2026-05-07 20:06 51.41698 6.82129 13813 ft 287 kts 233°
2026-05-07 20:06 51.40489 6.79573 13443 ft 286 kts 233°
2026-05-07 20:06 51.39286 6.77037 13095 ft 284 kts 233°
2026-05-07 20:07 51.38111 6.74559 12762 ft 282 kts 233°
2026-05-07 20:07 51.36924 6.72059 12413 ft 280 kts 233°
2026-05-07 20:07 51.35739 6.69572 12074 ft 279 kts 233°
2026-05-07 20:07 51.34561 6.67105 11733 ft 278 kts 233°
2026-05-07 20:08 51.33391 6.64657 11397 ft 277 kts 233°
2026-05-07 20:08 51.32236 6.62244 11060 ft 276 kts 233°
2026-05-07 20:08 51.31081 6.59826 10728 ft 275 kts 233°
2026-05-07 20:08 51.29917 6.57392 10390 ft 274 kts 233°
2026-05-07 20:09 51.28755 6.54975 10059 ft 274 kts 233°
2026-05-07 20:09 51.27595 6.52566 9697 ft 273 kts 233°
2026-05-07 20:09 51.26439 6.50158 9355 ft 271 kts 233°
2026-05-07 20:10 51.24156 6.45400 8694 ft 268 kts 233°
2026-05-07 20:10 51.23036 6.43071 8364 ft 267 kts 233°
2026-05-07 20:10 51.21902 6.40716 8038 ft 266 kts 233°
2026-05-07 20:10 51.20776 6.38386 7771 ft 262 kts 233°
2026-05-07 20:11 51.19675 6.36109 7637 ft 254 kts 233°
2026-05-07 20:11 51.18617 6.33916 7478 ft 246 kts 233°
2026-05-07 20:11 51.17598 6.31801 7369 ft 242 kts 233°
2026-05-07 20:11 51.16490 6.29711 7116 ft 245 kts 221°
2026-05-07 20:12 51.15013 6.28405 6623 ft 249 kts 196°
2026-05-07 20:12 51.13307 6.28160 6257 ft 245 kts 173°
2026-05-07 20:12 51.11663 6.28805 5771 ft 243 kts 161°
2026-05-07 20:12 51.10242 6.30216 5275 ft 240 kts 131°
2026-05-07 20:13 51.09481 6.32514 4892 ft 237 kts 101°
2026-05-07 20:13 51.09530 6.35068 4697 ft 236 kts 73°
2026-05-07 20:13 51.10326 6.37368 4576 ft 239 kts 53°
2026-05-07 20:13 51.11345 6.39458 4435 ft 239 kts 52°
2026-05-07 20:14 51.12371 6.41564 4336 ft 239 kts 52°
2026-05-07 20:14 51.13360 6.43608 4158 ft 232 kts 52°
2026-05-07 20:14 51.14327 6.45611 3932 ft 223 kts 52°
2026-05-07 20:14 51.15249 6.47521 3814 ft 211 kts 52°
2026-05-07 20:15 51.16119 6.49326 3711 ft 198 kts 52°
2026-05-07 20:15 51.16921 6.50991 3641 ft 181 kts 52°
2026-05-07 20:15 51.17643 6.52492 3578 ft 167 kts 52°
2026-05-07 20:15 51.18349 6.53958 3421 ft 164 kts 52°
2026-05-07 20:16 51.19041 6.55397 3222 ft 163 kts 52°
2026-05-07 20:16 51.19703 6.56776 3007 ft 146 kts 52°
2026-05-07 20:16 51.20291 6.57999 2821 ft 134 kts 53°
2026-05-07 20:16 51.20853 6.59169 2642 ft 130 kts 53°
2026-05-07 20:17 51.21389 6.60287 2471 ft 128 kts 53°
2026-05-07 20:17 51.21930 6.61414 2300 ft 127 kts 53°
2026-05-07 20:17 51.22465 6.62530 2128 ft 126 kts 53°
2026-05-07 20:17 51.22998 6.63640 1957 ft 126 kts 53°
2026-05-07 20:18 51.23526 6.64742 1779 ft 125 kts 53°
2026-05-07 20:18 51.24055 6.65847 1613 ft 125 kts 53°
2026-05-07 20:18 51.24581 6.66945 1439 ft 124 kts 53°
2026-05-07 20:18 51.25105 6.68042 1267 ft 124 kts 53°
2026-05-07 20:19 51.25627 6.69131 1102 ft 125 kts 53°
2026-05-07 20:19 51.26150 6.70224 933 ft 124 kts 53°
2026-05-07 20:19 51.26681 6.71328 754 ft 123 kts 53°
2026-05-07 20:19 51.27195 6.72401 583 ft 123 kts 53°
2026-05-07 20:20 51.27710 6.73481 393 ft 122 kts 53°
2026-05-07 20:20 51.28221 6.74560 232 ft 122 kts 52°
2026-05-07 20:20 51.28726 6.75622 132 ft 114 kts 53°
2026-05-07 20:20 51.29126 6.76461 135 ft 71 kts 52°
2026-05-07 20:21 51.29398 6.77032 132 ft 68 kts 53°
2026-05-07 20:21 51.29593 6.77581 128 ft 44 kts 85°
2026-05-07 20:21 51.29545 6.77820 133 ft 7 kts 125°
2026-05-07 20:21 51.29509 6.77883 135 ft 8 kts 140°
2026-05-07 20:22 51.29465 6.77938 137 ft 8 kts 142°
2026-05-07 20:22 51.29441 6.77968 138 ft 0 kts 143°
2026-05-07 20:23 51.29440 6.77969 138 ft 1 kts 143°
2026-05-07 20:23 51.29418 6.77995 139 ft 7 kts 143°
2026-05-07 20:23 51.29371 6.78050 141 ft 9 kts 143°
2026-05-07 20:24 51.29306 6.78131 142 ft 14 kts 142°
2026-05-07 20:24 51.29208 6.78213 137 ft 13 kts 172°
2026-05-07 20:24 51.29132 6.78125 134 ft 17 kts 235°
2026-05-07 20:24 51.29050 6.77953 128 ft 22 kts 232°
2026-05-07 20:25 51.28949 6.77742 130 ft 26 kts 232°
2026-05-07 20:25 51.28830 6.77490 129 ft 25 kts 233°
2026-05-07 20:25 51.28734 6.77289 127 ft 23 kts 232°
2026-05-07 20:25 51.28630 6.77070 126 ft 21 kts 232°
2026-05-07 20:26 51.28539 6.76881 127 ft 21 kts 233°
2026-05-07 20:26 51.28454 6.76779 127 ft 17 kts 158°
2026-05-07 20:26 51.28345 6.76866 128 ft 21 kts 179°
2026-05-07 20:26 51.28203 6.76842 131 ft 25 kts 186°
2026-05-07 20:27 51.28057 6.76785 125 ft 5 kts 205°
2026-05-07 20:27 51.28058 6.76720 129 ft 8 kts 278°
2026-05-07 20:27 51.28059 6.76704 128 ft 0 kts 275°